Location: New York
(40.7127°N, 74.0060°W)
Time: 14:59:40
(UTC-04:00)

CUTE 1.7 + AOD 2 - Visible Passes

Search period start: 22 April 2024 00:00
Search period end: 02 May 2024 00:00
Orbit: 571 x 588 km, 97.7° (Epoch: 21 April)

Date Brightness Start Highest point End Pass type
(mag) Time Alt. Az. Time Alt. Az. Time Alt. Az.
22 Apr ? 04:05:58 10° NNE 04:09:52 43° E 04:12:23 19° SSE visible
23 Apr ? 04:10:42 10° NNE 04:14:40 49° E 04:17:20 19° SSE visible
24 Apr ? 04:15:24 10° NNE 04:19:26 56° E 04:22:15 18° S visible
25 Apr ? 04:20:06 10° NNE 04:24:09 65° E 04:27:08 18° S visible
26 Apr ? 04:24:47 10° NNE 04:28:52 74° E 04:31:58 17° S visible
27 Apr ? 04:29:28 10° NNE 04:33:33 84° ESE 04:36:48 16° S visible
28 Apr ? 04:34:07 10° N 04:38:12 85° WNW 04:41:37 14° SSW visible
29 Apr ? 04:38:45 10° N 04:42:49 75° WNW 04:46:23 13° SSW visible
30 Apr ? 04:43:22 10° N 04:47:25 66° WNW 04:51:08 12° SSW visible
01 May ? 03:15:27 10° ENE 03:16:20 11° E 03:17:13 10° ESE visible
01 May ? 04:47:58 10° N 04:51:59 58° WNW 04:55:51 11° SSW visible
